Location: Unspecified
(0.0000°N, 0.0000°E)
Time: 04:42:51
(UTC+00:00)

A-11 Canister half - All Passes

Search period start: 19 April 2014 00:00
Search period end: 29 April 2014 00:00
Orbit: 1526 x 1683 km, 47.3° (Epoch: 17 April)

Date Brightness Start Highest point End Pass type
(mag) Time Alt. Az. Time Alt. Az. Time Alt. Az.
19 Apr - 00:31:59 10° WSW 00:36:31 14° SW 00:41:03 10° SSW night (unlit)
19 Apr - 09:08:25 10° SSW 09:17:25 47° SE 09:26:39 10° ENE daylight
19 Apr - 11:13:40 10° WSW 11:22:19 38° NW 11:31:15 10° NNE daylight
19 Apr - 19:57:49 10° N 20:04:32 20° NE 20:11:05 10° E visible
19 Apr - 21:59:52 10° NW 22:09:46 84° SW 22:19:22 10° SE visible
20 Apr - 00:09:46 10° W 00:14:57 16° SW 00:20:05 10° SSW night (unlit)
20 Apr - 08:47:03 10° SSW 08:55:54 44° SE 09:04:58 10° ENE daylight
20 Apr - 10:52:00 10° WSW 11:00:46 40° NW 11:09:50 10° NNE daylight
20 Apr - 19:36:36 10° N 19:42:57 19° NE 19:49:09 10° E visible
20 Apr - 21:38:19 10° NW 21:48:15 89° SW 21:57:53 10° SE visible
20 Apr - 23:47:39 10° W 23:53:23 17° SW 23:59:03 10° S night (unlit)
21 Apr - 08:25:41 10° SSW 08:34:23 41° SE 08:43:16 10° ENE daylight
21 Apr - 10:30:21 10° WSW 10:39:14 43° NW 10:48:25 10° NNE daylight
21 Apr - 19:15:27 10° N 19:21:21 17° NE 19:27:08 10° E visible
21 Apr - 21:16:46 10° NW 21:26:44 86° NE 21:36:23 10° SE visible
21 Apr - 23:25:36 10° W 23:31:49 19° SW 23:37:57 10° S night (unlit)
22 Apr - 08:04:20 10° SSW 08:12:51 38° SE 08:21:33 10° ENE daylight
22 Apr - 10:08:43 10° WSW 10:17:42 46° NW 10:27:00 10° NNE daylight
22 Apr - 18:54:20 10° NNE 18:59:45 16° NE 19:05:04 10° ENE visible
22 Apr - 20:55:14 10° NW 21:05:13 81° NE 21:14:52 10° SE visible
22 Apr - 23:03:37 10° W 23:10:15 20° SW 23:16:49 10° S visible
23 Apr - 07:43:00 10° SSW 07:51:20 35° SE 07:59:49 10° ENE daylight
23 Apr - 09:47:06 10° WSW 09:56:10 50° NW 10:05:33 10° NNE daylight
23 Apr - 18:33:18 10° NNE 18:38:09 14° NE 18:42:55 10° ENE visible
23 Apr - 20:33:42 10° NW 20:43:41 76° NE 20:53:21 10° SE visible
23 Apr - 22:41:40 10° W 22:48:42 22° SW 22:55:38 10° S visible
24 Apr - 07:21:41 10° S 07:29:48 33° SE 07:38:04 10° ENE daylight
24 Apr - 09:25:30 10° SW 09:34:39 53° NW 09:44:07 10° NNE daylight
24 Apr - 18:12:21 10° NNE 18:16:32 13° NE 18:20:39 10° ENE visible
24 Apr - 20:12:12 10° NNW 20:22:10 72° NE 20:31:49 10° SE visible
24 Apr - 22:19:45 10° W 22:27:09 24° SW 22:34:25 10° S visible
25 Apr - 07:00:23 10° S 07:08:17 30° SE 07:16:18 10° ENE daylight
25 Apr - 09:03:55 10° SW 09:13:07 57° NW 09:22:39 10° NNE daylight
25 Apr - 17:51:35 10° NNE 17:54:54 12° NE 17:58:12 10° ENE daylight
25 Apr - 19:50:42 10° NNW 20:00:38 67° NE 20:10:16 10° SE visible
25 Apr - 21:57:53 10° W 22:05:35 26° SW 22:13:10 10° S visible
26 Apr - 06:39:06 10° S 06:46:45 28° SE 06:54:30 10° ENE daylight
26 Apr - 08:42:21 10° SW 08:51:36 61° NW 09:01:11 10° NNE daylight
26 Apr - 17:31:11 10° NNE 17:33:17 11° NE 17:35:22 10° NE daylight
26 Apr - 19:29:12 10° NNW 19:39:06 63° NE 19:48:42 10° SE visible
26 Apr - 21:36:02 10° WNW 21:44:03 28° SW 21:51:55 10° S visible
27 Apr - 06:17:50 10° S 06:25:13 26° SE 06:32:41 10° E daylight
27 Apr - 08:20:47 10° SW 08:30:05 65° NW 08:39:42 10° NNE daylight
27 Apr - 10:33:36 10° WNW 10:35:47 11° NW 10:38:00 10° NNW daylight
27 Apr - 19:07:43 10° NNW 19:17:34 59° NE 19:27:07 10° SE visible
27 Apr - 21:14:13 10° WNW 21:22:30 30° SW 21:30:37 10° S visible
28 Apr - 05:56:36 10° S 06:03:41 24° SE 06:10:50 10° E daylight
28 Apr - 07:59:15 10° SW 08:08:35 70° NW 08:18:13 10° NNE daylight
28 Apr - 10:10:53 10° WNW 10:14:10 12° NW 10:17:30 10° NNW daylight
28 Apr - 18:46:15 10° NNW 18:56:02 55° NE 19:05:32 10° SE visible
28 Apr - 20:52:26 10° WNW 21:00:57 33° SW 21:09:19 10° S visible
